User: anonymous   Login
Location: ???? ?????
(30.0052°N, 31.2891°E)
Time: 04:13:31
(UTC+00:00)
Language:

Iridium 16 - Orbit

View from above orbital plane
View from above orbital plane
View from above satellite
View from above satellite

Ground track
Ground track

The orbit data is extracted from the following two-line orbital elements,

1 24841U 97030F   23027.57205111  .00000612  00000-0  19901-3 0  9996
2 24841  86.4045 211.0322 0003733  67.5564 292.6029 14.37198078341756
Epoch (UTC): 27 January 2023 13:43:45
Eccentricity: 0.0003733
inclination: 86.4045°
perigee height: 765 km
apogee height: 770 km
right ascension of ascending node: 211.0322°
argument of perigee: 67.5564°
revolutions per day: 14.37198078
mean anomaly at epoch: 292.6029°
orbit number at epoch: 34175

The dashed part of the orbit path shows where the satellite is in the earth's shadow,  

DLR